Weather History for Plattsburgh, NY

Change the Weather History Date:

Thursday, November 10, 2011

  Actual Average Record
Temperature  
Mean Temperature 49 °F 39 °F  
Max Temperature 58 °F 48 °F 69 °F (1948)
Min Temperature 39 °F 29 °F 16 °F (1965)
Degree Days  
Heating Degree Days 16 26  
Month to date heating degree days 218 245  
Since 1 July heating degree days 825 1028  
Cooling Degree Days 0 0  
Month to date cooling degree days 0  
Year to date cooling degree days 346  
Moisture  
Dew Point 43 °F    
Average Humidity 72    
Maximum Humidity 93    
Minimum Humidity 51    
Precipitation  
Precipitation 0.59 in - 1.53 in (1990)
Month to date precipitation 0.61  
Year to date precipitation 36.64  
Sea Level Pressure  
Sea Level Pressure 29.79 in    
Wind  
Wind Speed 7 mph (NW)    
Max Wind Speed 20 mph    
Max Gust Speed 26 mph    
Visibility 7 miles    
Events Rain    
T = Trace of Precipitation, MM = Missing Value Source: NWS Daily Summary

Daily Weather History Graph

Daily Weather History Graph

Search for Another Location

Airport:

Trip Planner

Search our weather history database for the weather conditions in past years. The results will help you decide how hot, cold, wet, or windy it might be!

Date:

Astronomy

Nov. 10, 2011 Rise Set
Actual Time 6:43 AM EST 4:31 PM EST
Civil Twilight 6:12 AM EST 5:02 PM EST
Nautical Twilight 5:37 AM EST 5:37 PM EST
Astronomical Twilight 5:03 AM EST 6:11 PM EST
Moon 4:15 PM EST (11/10) 6:35 AM EST (11/10)
Length of Visible Light 10h 50m
Length of Day
9h 48m
Full, 100% of the Moon is Illuminated
Nov 10
Full
Nov 10
Full
Nov 18
Last Quarter
Nov 25
New
Dec 2
First Quarter

Hourly Weather History & Observations

Time (EST) Temp. Windchill Dew Point Humidity Pressure Visibility Wind Dir Wind Speed Gust Speed Precip Events Conditions
12:53 AM 55.9 °F - 43.0 °F 62% 29.86 in 10.0 mi South 18.4 mph 26.5 mph N/A   Clear
1:53 AM 54.0 °F - 44.1 °F 69% 29.86 in 10.0 mi SSE 18.4 mph - N/A   Clear
2:53 AM 54.0 °F - 44.1 °F 69% 29.86 in 10.0 mi SE 12.7 mph - N/A   Clear
4:53 AM 55.0 °F - 46.0 °F 72% 29.84 in 10.0 mi South 11.5 mph - N/A   Mostly Cloudy
5:53 AM 55.9 °F - 46.0 °F 69% 29.84 in 10.0 mi South 12.7 mph - N/A   Scattered Clouds
8:53 AM 55.9 °F - 48.9 °F 77% 29.84 in 10.0 mi SSE 6.9 mph - N/A   Overcast
9:53 AM 57.9 °F - 48.9 °F 72% 29.83 in 10.0 mi South 6.9 mph - N/A   Overcast
10:53 AM 57.0 °F - 48.9 °F 74% 29.82 in 10.0 mi South 6.9 mph - N/A   Overcast
11:30 AM 55.4 °F - 46.4 °F 72% 29.81 in 10.0 mi NW 6.9 mph - N/A   Overcast
11:53 AM 54.0 °F - 44.1 °F 69% 29.81 in 10.0 mi WNW 6.9 mph - N/A   Overcast
12:36 PM 50.0 °F - 46.4 °F 87% 29.80 in 2.5 mi Calm Calm - 0.02 in Rain Light Rain
12:53 PM 48.9 °F - 46.0 °F 90% 29.80 in 2.5 mi Calm Calm - 0.03 in Rain Light Rain
1:01 PM 48.2 °F - 44.6 °F 87% 29.80 in 3.0 mi NNW 3.5 mph - 0.00 in Rain Light Rain
1:29 PM 48.2 °F - 44.6 °F 87% 29.79 in 2.5 mi Calm Calm - 0.02 in Rain Light Rain
1:36 PM 48.2 °F - 44.6 °F 87% 29.79 in 3.0 mi Calm Calm - 0.03 in Rain Light Rain
1:51 PM 48.2 °F - 44.6 °F 87% 29.78 in 2.5 mi North 4.6 mph - 0.05 in Rain Rain
1:53 PM 48.0 °F - 45.0 °F 89% 29.79 in 2.5 mi North 4.6 mph - 0.06 in Rain Rain
2:02 PM 46.4 °F 45.2 °F 44.6 °F 93% 29.78 in 3.0 mi NNW 3.5 mph - 0.01 in Rain Light Rain
2:53 PM 46.9 °F - 45.0 °F 93% 29.78 in 3.0 mi NNE 5.8 mph - 0.05 in Rain Light Rain
3:51 PM 46.4 °F 45.2 °F 44.6 °F 93% 29.78 in 5.0 mi NNE 3.5 mph - 0.04 in Rain Light Rain
3:52 PM 46.9 °F - 45.0 °F 93% 29.79 in 5.0 mi North 3.5 mph - 0.04 in Rain Light Rain
4:53 PM 46.0 °F 43.1 °F 42.1 °F 86% 29.79 in 10.0 mi NW 5.8 mph - 0.04 in Rain Light Rain
5:53 PM 44.1 °F - 41.0 °F 89% 29.77 in 10.0 mi Calm Calm - 0.02 in Rain Light Rain
6:24 PM 42.8 °F 41.1 °F 39.2 °F 87% 29.78 in 5.0 mi Variable 3.5 mph - 0.05 in Rain Rain
6:53 PM 43.0 °F - 39.0 °F 86% 29.78 in 10.0 mi Calm Calm - 0.08 in Rain Light Rain
7:03 PM 42.8 °F 41.1 °F 39.2 °F 87% 29.76 in 9.0 mi NNW 3.5 mph - 0.01 in Rain Rain
7:28 PM 42.8 °F - 39.2 °F 87% 29.77 in 10.0 mi Calm Calm - 0.04 in Rain Light Rain
7:53 PM 42.1 °F - 39.0 °F 89% 29.76 in 8.0 mi Calm Calm - 0.06 in Rain Light Rain
8:08 PM 42.8 °F 40.1 °F 39.2 °F 87% 29.75 in 10.0 mi WNW 4.6 mph - 0.01 in Rain Light Rain
8:53 PM 41.0 °F 39.0 °F 37.9 °F 89% 29.77 in 9.0 mi SW 3.5 mph - 0.04 in Rain Light Rain
9:10 PM 39.2 °F - 37.4 °F 93% 29.77 in 7.0 mi Calm Calm - 0.02 in Rain Rain
9:53 PM 39.9 °F - 37.9 °F 93% 29.76 in 7.0 mi Calm Calm - 0.09 in Rain Rain
10:53 PM 39.9 °F 37.8 °F 37.9 °F 93% 29.72 in 9.0 mi East 3.5 mph - 0.07 in Rain Light Rain
11:53 PM 39.0 °F - 37.9 °F 96% 29.70 in 10.0 mi Calm Calm - 0.01 in   Overcast